Weather History for Charleston, SC

Change the Weather History Date:

Thursday, October 10, 2013

  Actual Average (KCHS) Record (KCHS)
Temperature  
Mean Temperature 68 °F 69 °F  
Max Temperature 80 °F 79 °F 90 °F (2009)
Min Temperature 57 °F 59 °F 35 °F (2000)
Degree Days  
Heating Degree Days 0 1  
Month to date heating degree days 10  
Since 1 July heating degree days 13  
Cooling Degree Days 4 5  
Month to date cooling degree days 60  
Year to date cooling degree days 2198  
Growing Degree Days 18 (Base 50)    
Moisture  
Dew Point 57 °F    
Average Humidity 71    
Maximum Humidity 94    
Minimum Humidity 42    
Precipitation  
Precipitation 0.00 in 0.14 in 1.82 in (1990)
Month to date precipitation 1.49  
Year to date precipitation 43.23  
Sea Level Pressure  
Sea Level Pressure 30.02 in    
Wind  
Wind Speed 6 mph (NW)    
Max Wind Speed 14 mph    
Max Gust Speed 21 mph    
Visibility 10 miles    
Events      
T = Trace of Precipitation, MM = Missing Value Source: NWS Daily Summary

Daily Weather History Graph

Daily Weather History Graph

Search for Another Location

Airport:

Trip Planner

Search our weather history database for the weather conditions in past years. The results will help you decide how hot, cold, wet, or windy it might be!

Date:

Astronomy

Oct. 10, 2013 Rise Set
Actual Time 7:20 AM EDT 6:52 PM EDT
Civil Twilight 6:55 AM EDT 7:17 PM EDT
Nautical Twilight 6:27 AM EDT 7:46 PM EDT
Astronomical Twilight 5:58 AM EDT 8:14 PM EDT
Moon 12:58 PM EDT (10/10) 11:40 PM EDT (10/10)
Length of Visible Light 12h 21m
Length of Day
11h 32m
Waxing Crescent, 35% of the Moon is Illuminated
Oct 10
Waxing Crescent
Oct 11
First Quarter
Oct 18
Full
Oct 26
Last Quarter
Nov 3
New

Hourly Weather History & Observations

Time (EDT) Temp. Heat Index Dew Point Humidity Pressure Visibility Wind Dir Wind Speed Gust Speed Precip Events Conditions
12:15 AM 64.4 °F - 59.0 °F 83% 30.05 in 10.0 mi WNW 3.5 mph - 0.00 in   Mostly Cloudy
12:55 AM 62.6 °F - 59.0 °F 88% 30.05 in 10.0 mi Calm Calm - 0.00 in   Partly Cloudy
1:15 AM 60.8 °F - 57.2 °F 88% 30.04 in 10.0 mi Calm Calm - 0.00 in   Clear
1:35 AM 62.6 °F - 57.2 °F 82% 30.04 in 10.0 mi Calm Calm - 0.00 in   Clear
1:55 AM 62.6 °F - 57.2 °F 82% 30.05 in 10.0 mi NW 5.8 mph - 0.00 in   Clear
2:15 AM 62.6 °F - 57.2 °F 82% 30.04 in 10.0 mi Calm Calm - 0.00 in   Clear
2:35 AM 60.8 °F - 57.2 °F 88% 30.05 in 10.0 mi NW 5.8 mph - 0.00 in   Clear
2:55 AM 60.8 °F - 57.2 °F 88% 30.04 in 10.0 mi NNW 5.8 mph - 0.00 in   Clear
3:15 AM 60.8 °F - 57.2 °F 88% 30.04 in 10.0 mi NW 5.8 mph - 0.00 in   Clear
3:35 AM 60.8 °F - 57.2 °F 88% 30.04 in 10.0 mi NW 6.9 mph - 0.00 in   Clear
3:55 AM 60.8 °F - 57.2 °F 88% 30.04 in 10.0 mi NW 5.8 mph - 0.00 in   Clear
4:15 AM 60.8 °F - 55.4 °F 82% 30.03 in 10.0 mi NW 5.8 mph - 0.00 in   Clear
4:35 AM 60.8 °F - 55.4 °F 82% 30.03 in 10.0 mi NW 3.5 mph - 0.00 in   Clear
4:55 AM 59.0 °F - 55.4 °F 88% 30.03 in 10.0 mi NW 5.8 mph - 0.00 in   Clear
5:15 AM 59.0 °F - 55.4 °F 88% 30.04 in 10.0 mi NW 5.8 mph - 0.00 in   Clear
5:35 AM 57.2 °F - 55.4 °F 94% 30.04 in 10.0 mi NW 4.6 mph - 0.00 in   Clear
5:55 AM 59.0 °F - 55.4 °F 88% 30.04 in 10.0 mi NW 5.8 mph - 0.00 in   Clear
6:15 AM 59.0 °F - 55.4 °F 88% 30.04 in 10.0 mi NW 8.1 mph - 0.00 in   Clear
6:35 AM 57.2 °F - 55.4 °F 94% 30.05 in 10.0 mi NW 8.1 mph - 0.00 in   Clear
6:55 AM 57.2 °F - 53.6 °F 88% 30.05 in 10.0 mi NW 6.9 mph - 0.00 in   Clear
7:15 AM 57.2 °F - 53.6 °F 88% 30.05 in 10.0 mi NW 6.9 mph - 0.00 in   Clear
7:35 AM 57.2 °F - 53.6 °F 88% 30.05 in 10.0 mi NW 8.1 mph - 0.00 in   Clear
7:55 AM 59.0 °F - 53.6 °F 82% 30.05 in 10.0 mi NW 10.4 mph - 0.00 in   Clear
8:15 AM 60.8 °F - 53.6 °F 77% 30.06 in 10.0 mi NNW 9.2 mph - 0.00 in   Clear
8:35 AM 60.8 °F - 53.6 °F 77% 30.06 in 10.0 mi NNW 8.1 mph - 0.00 in   Clear
8:55 AM 62.6 °F - 53.6 °F 72% 30.06 in 10.0 mi NNW 9.2 mph - 0.00 in   Clear
9:15 AM 62.6 °F - 55.4 °F 77% 30.07 in 10.0 mi NW 10.4 mph 17.3 mph 0.00 in   Clear
9:35 AM 64.4 °F - 55.4 °F 73% 30.06 in 10.0 mi NW 9.2 mph - 0.00 in   Clear
9:55 AM 64.4 °F - 55.4 °F 73% 30.06 in 10.0 mi NNW 11.5 mph - 0.00 in   Clear
10:15 AM 66.2 °F - 55.4 °F 68% 30.06 in 10.0 mi NW 11.5 mph - 0.00 in   Clear
10:35 AM 68.0 °F - 55.4 °F 64% 30.06 in 10.0 mi NNW 8.1 mph - 0.00 in   Clear
10:55 AM 69.8 °F - 55.4 °F 60% 30.06 in 10.0 mi NW 11.5 mph - 0.00 in   Clear
11:15 AM 69.8 °F - 55.4 °F 60% 30.05 in 10.0 mi NNW 10.4 mph - 0.00 in   Clear
11:35 AM 71.6 °F - 57.2 °F 60% 30.05 in 10.0 mi NW 9.2 mph 16.1 mph 0.00 in   Clear
11:55 AM 73.4 °F - 57.2 °F 57% 30.04 in 10.0 mi NW 10.4 mph 16.1 mph 0.00 in   Clear
12:15 PM 73.4 °F - 57.2 °F 57% 30.04 in 10.0 mi NNW 13.8 mph 18.4 mph 0.00 in   Clear
12:35 PM 75.2 °F - 57.2 °F 53% 30.03 in 10.0 mi NW 13.8 mph 19.6 mph 0.00 in   Clear
12:55 PM 77.0 °F - 55.4 °F 47% 30.03 in 10.0 mi NW 13.8 mph - 0.00 in   Clear
1:15 PM 75.2 °F - 55.4 °F 50% 30.02 in 10.0 mi NW 12.7 mph 18.4 mph 0.00 in   Clear
1:35 PM 77.0 °F - 55.4 °F 47% 30.01 in 10.0 mi NW 12.7 mph 20.7 mph 0.00 in   Clear
1:55 PM 77.0 °F - 57.2 °F 50% 29.99 in 10.0 mi NNW 12.7 mph 18.4 mph 0.00 in   Clear
2:15 PM 77.0 °F - 55.4 °F 47% 29.98 in 10.0 mi NNW 12.7 mph 19.6 mph 0.00 in   Clear
2:35 PM 78.8 °F - 55.4 °F 44% 29.98 in 10.0 mi WNW 13.8 mph 20.7 mph 0.00 in   Clear
2:55 PM 78.8 °F - 55.4 °F 44% 29.97 in 10.0 mi WNW 12.7 mph - 0.00 in   Clear
3:15 PM 78.8 °F - 55.4 °F 44% 29.97 in 10.0 mi NNW 13.8 mph - 0.00 in   Clear
3:35 PM 78.8 °F - 55.4 °F 44% 29.97 in 10.0 mi NW 12.7 mph - 0.00 in   Clear
3:55 PM 80.6 °F 80.5 °F 55.4 °F 42% 29.96 in 10.0 mi WNW 10.4 mph - 0.00 in   Clear
4:15 PM 78.8 °F - 55.4 °F 44% 29.96 in 10.0 mi NW 8.1 mph 16.1 mph 0.00 in   Clear
4:35 PM 78.8 °F - 55.4 °F 44% 29.97 in 10.0 mi WNW 9.2 mph - 0.00 in   Clear
4:55 PM 78.8 °F - 55.4 °F 44% 29.96 in 10.0 mi WNW 12.7 mph 17.3 mph 0.00 in   Clear
5:15 PM 78.8 °F - 55.4 °F 44% 29.96 in 10.0 mi NW 8.1 mph - 0.00 in   Clear
5:35 PM 78.8 °F - 55.4 °F 44% 29.96 in 10.0 mi NW 6.9 mph - 0.00 in   Clear
5:55 PM 77.0 °F - 55.4 °F 47% 29.96 in 10.0 mi NW 5.8 mph - 0.00 in   Clear
6:15 PM 75.2 °F - 57.2 °F 53% 29.96 in 10.0 mi NW 4.6 mph - 0.00 in   Clear
6:35 PM 73.4 °F - 57.2 °F 57% 29.96 in 10.0 mi Calm Calm - 0.00 in   Clear
6:55 PM 71.6 °F - 59.0 °F 64% 29.97 in 10.0 mi Calm Calm - 0.00 in   Clear
7:15 PM 69.8 °F - 59.0 °F 68% 29.97 in 10.0 mi Calm Calm - 0.00 in   Clear
7:35 PM 66.2 °F - 59.0 °F 78% 29.98 in 10.0 mi Calm Calm - 0.00 in   Clear
7:55 PM 66.2 °F - 59.0 °F 78% 29.98 in 10.0 mi Calm Calm - 0.00 in   Clear
8:15 PM 66.2 °F - 59.0 °F 78% 29.98 in 10.0 mi Calm Calm - 0.00 in   Clear
8:35 PM 64.4 °F - 59.0 °F 83% 29.99 in 10.0 mi Calm Calm - 0.00 in   Clear
8:55 PM 64.4 °F - 59.0 °F 83% 29.99 in 10.0 mi Calm Calm - 0.00 in   Clear
9:15 PM 62.6 °F - 59.0 °F 88% 30.00 in 10.0 mi Calm Calm - 0.00 in   Partly Cloudy
9:35 PM 64.4 °F - 60.8 °F 88% 30.00 in 10.0 mi Calm Calm - 0.00 in   Mostly Cloudy
9:55 PM 64.4 °F - 59.0 °F 83% 30.01 in 10.0 mi Calm Calm - 0.00 in   Mostly Cloudy
10:15 PM 62.6 °F - 59.0 °F 88% 30.02 in 10.0 mi Calm Calm - 0.00 in   Partly Cloudy
10:35 PM 62.6 °F - 59.0 °F 88% 30.02 in 10.0 mi Calm Calm - 0.00 in   Clear
10:55 PM 64.4 °F - 59.0 °F 83% 30.01 in 10.0 mi Calm Calm - 0.00 in   Partly Cloudy
11:15 PM 62.6 °F - 57.2 °F 82% 30.01 in 10.0 mi Calm Calm - 0.00 in   Scattered Clouds
11:35 PM 62.6 °F - 59.0 °F 88% 30.00 in 10.0 mi Calm Calm - 0.00 in   Overcast
11:55 PM 62.6 °F - 60.8 °F 94% 29.99 in 10.0 mi Calm Calm - 0.00 in   Overcast